Temp
5 4 4 4 5 5 5 4 4 4 4 5 5 5 5 5 6 6 6 7 6 6 6 6 6 6 5 4 4 4 4 6 7 6 6 7 7 6 6 6 6 6 7 7 8
5 5 4 4 4 4 4 3 3 3 4 4 4 5 4 4 5 5 6 6 6 6 6 6 5 5 4 4 4 4 4 6 6 5 5 5 5 6 5 5 6 6 7 7 7
4 4 4 3 3 3 3 2 2 3 3 3 3 4 4 4 4 5 5 5 6 6 5 6 5 5 3 3 2 4 4 5 4 5 4 4 5 6 4 5 5 7 6 6 7
3 3 3 3 2 2 2 2 2 2 2 2 3 3 3 4 3 3 4 4 4 4 4 4 4 3 3 1 2 3 3 4 3 3 3 3 4 4 5 5 5 7 7 7 7
2 2 2 1 1 1 1 1 1 1 2 2 2 2 3 3 3 3 3 4 4 4 4 3 3 2 1 1 2 2 2 2 2 3 4 3 4 6 4 4 7 7 7 7 7
1 1 -0 -1 -1 -1 -0 -0 0 0 1 1 1 2 2 3 3 3 2 3 3 3 3 2 2 2 0 1 1 2 2 2 2 3 4 4 5 3 5 7 6 7 7 7 7
-0 -1 -1 -1 -1 -1 -1 -0 -0 -0 -0 0 0 1 1 2 2 2 2 3 3 2 2 2 1 1 -0 -0 0 2 1 1 2 2 3 3 2 5 6 6 5 7 6 7 7
-1 -1 -1 -2 -1 -1 -1 -1 -1 -0 -0 -0 0 0 1 1 2 2 2 2 2 2 2 1 1 1 -1 -1 1 1 1 2 3 2 2 2 4 4 4 5 4 4 5 5 7
-2 -2 -2 -2 -1 -1 -1 -0 0 1 1 1 1 1 1 1 1 2 2 2 2 2 1 1 0 0 -2 -1 -0 -0 1 3 2 2 2 2 4 4 3 3 4 4 4 5 5
-2 -2 -1 -1 -0 0 0 0 1 1 1 1 1 1 0 1 1 1 1 1 1 1 1 1 -1 -1 -1 -0 2 2 1 2 2 2 1 2 2 3 3 3 3 4 4 4 5
-2 -1 -1 -0 0 0 0 1 0 1 1 0 0 1 1 0 1 1 1 0 -0 -0 -0 1 -1 -1 0 -1 -0 0 0 0 1 1 0 1 2 3 3 3 4 3 4 4 5
-1 -1 -1 -0 -0 0 0 -0 -0 -0 1 0 0 -1 -1 -0 1 1 0 -1 -1 -1 -2 -2 -1 -0 -1 -1 -2 -1 -0 1 1 0 -0 1 2 3 3 3 4 3 4 4 4
-1 -1 -1 -1 -1 -1 -1 -0 -0 0 -0 -0 -1 -2 -1 -1 -1 -0 -0 -1 -2 -2 -2 -1 -0 -1 -1 -1 -2 -1 -1 0 0 0 0 1 3 5 4 5 5 4 5 4 4
-2 -1 -1 -1 -1 -1 -1 -1 -1 -1 -1 -2 -2 -2 -2 -2 -2 -1 -1 -1 -3 -2 -2 -2 -1 -1 -2 -1 -1 -0 -1 -1 -1 -0 2 1 4 5 4 4 3 3 3 4 4
-2 -2 -2 -2 -2 -2 -2 -1 -1 -1 1 -3 -3 -2 -3 -2 -2 -2 -2 -1 -3 -3 -3 -1 -2 -1 -2 -1 -2 -0 -2 -1 -1 -1 0 1 2 6 4 4 4 4 4 4 4
-2 -2 -2 -2 -2 -2 -2 -2 -2 -2 0 -3 -3 -3 -3 -3 -3 -3 -3 -2 -2 -3 -3 -2 -2 -2 -2 -2 -2 -2 -2 -1 -1 -0 1 2 3 6 5 2 2 2 2 3 3
-2 -2 -2 -2 -3 -3 -3 -3 -3 -1 -3 -5 -4 -3 -4 -4 -3 -3 -3 -3 -2 -2 -2 -2 -2 -2 -2 -2 -2 -2 -1 2 2 0 4 3 3 5 2 1 1 2 3 3 4
-3 -3 -3 -3 -3 -3 -3 -3 -3 -5 -5 -4 -4 -4 -5 -6 -4 -3 -3 -2 -2 -2 -1 -0 -0 -2 -2 -2 -1 -1 -1 2 2 4 5 3 4 4 1 1 0 2 3 4 4
-3 -3 -3 -3 -3 -3 -4 -5 -5 -7 -6 -6 -5 -6 -5 -6 -6 -4 -4 -3 -3 -3 -2 -1 -0 -1 -2 -2 -2 -2 -1 -1 -0 0 1 4 4 2 1 0 1 2 3 4 5
-4 -3 -3 -3 -4 -4 -5 -6 -7 -7 -7 -8 -7 -7 -6 -6 -6 -5 -4 -4 -4 -5 -4 -3 -1 -2 -2 -2 -2 -2 -2 -2 -1 1 3 6 5 4 1 -0 2 3 3 4 5
-4 -4 -4 -4 -4 -6 -7 -8 -8 -8 -8 -9 -9 -9 -8 -8 -7 -7 -5 -5 -5 -5 -4 -3 -2 -2 -2 -2 -1 -3 -3 -2 -2 -1 2 4 5 0 -0 1 0 0 0 3 5
-4 -5 -4 -5 -6 -7 -9 -8 -9 -10 -10 -10 -10 -10 -9 -9 -8 -8 -7 -6 -6 -6 -5 -4 -3 -1 -1 -3 -2 -2 -2 -2 -0 -0 -1 -1 3 -0 -0 -0 0 0 1 1 4
-5 -5 -5 -6 -7 -9 -9 -9 -9 -10 -10 -11 -10 -10 -10 -9 -9 -8 -8 -8 -7 -7 -7 -6 -3 -1 -1 -2 -2 -2 -3 -2 -2 -2 -1 -0 2 0 -1 -1 0 -0 0 0 1
-5 -6 -7 -8 -8 -9 -10 -10 -11 -10 -10 -10 -10 -10 -10 -9 -8 -9 -8 -8 -7 -7 -7 -7 -5 -2 0 -1 -1 -2 -2 -2 -2 -2 -1 -0 1 1 0 -0 -1 -0 -1 -0 0
-6 -7 -8 -10 -11 -11 -10 -11 -11 -11 -11 -11 -10 -10 -11 -10 -9 -9 -9 -8 -7 -6 -7 -5 -5 -4 -3 -3 -3 -2 -2 -2 -2 -2 -1 0 -0 -0 -1 -2 0 -1 -1 -1 -0
-7 -8 -9 -10 -10 -11 -11 -12 -12 -12 -12 -11 -11 -11 -11 -11 -10 -10 -10 -9 -9 -8 -7 -6 -5 -6 -6 -4 -3 -3 -2 -2 -2 -2 -2 -1 -1 -1 -2 -2 -1 -1 -2 -1 -1
-8 -9 -9 -10 -11 -11 -11 -12 -12 -12 -11 -11 -12 -11 -11 -11 -10 -10 -9 -8 -8 -9 -8 -7 -6 -6 -6 -4 -3 -2 -3 -3 -3 -2 -2 -2 -2 -2 -2 -2 -2 -2 -2 -1 -1
Height
3106 3104 3102 3100 3099 3097 3097 3097 3095 3094 3094 3094 3092 3090 3090 3090 3089 3088 3088 3089 3089 3089 3090 3090 3092 3094 3094 3094 3094 3098 3096 3092 3096 3098 3100 3101 3100 3100 3100 3102 3104 3104 3106 3106 3107
3100 3099 3098 3096 3095 3093 3092 3090 3089 3088 3088 3088 3087 3086 3084 3083 3083 3082 3083 3082 3083 3083 3084 3085 3086 3089 3090 3090 3089 3089 3088 3087 3094 3092 3094 3096 3096 3097 3097 3097 3096 3099 3101 3101 3102
3094 3093 3091 3090 3089 3088 3086 3085 3083 3082 3082 3080 3081 3082 3081 3079 3079 3076 3076 3076 3077 3077 3078 3078 3080 3083 3086 3085 3085 3083 3080 3087 3085 3084 3087 3088 3090 3090 3088 3087 3091 3093 3095 3094 3096
3088 3087 3087 3085 3083 3081 3080 3079 3077 3076 3076 3075 3076 3077 3077 3076 3078 3072 3071 3072 3072 3072 3073 3073 3073 3077 3080 3079 3082 3078 3077 3079 3081 3080 3080 3082 3084 3081 3081 3081 3083 3088 3088 3088 3090
3083 3081 3080 3080 3079 3077 3075 3073 3072 3071 3069 3069 3070 3071 3072 3071 3070 3068 3067 3067 3068 3069 3069 3070 3070 3071 3075 3077 3078 3071 3074 3075 3073 3073 3073 3074 3073 3072 3071 3073 3077 3078 3079 3080 3084
3077 3076 3075 3074 3073 3071 3069 3068 3068 3066 3065 3064 3064 3064 3066 3065 3063 3063 3062 3062 3061 3063 3063 3065 3066 3067 3068 3070 3071 3071 3067 3068 3068 3067 3068 3066 3065 3065 3064 3066 3066 3069 3070 3072 3076
3070 3070 3070 3069 3068 3067 3064 3062 3061 3060 3059 3059 3058 3058 3061 3060 3058 3057 3057 3057 3058 3059 3060 3060 3061 3062 3063 3065 3065 3063 3063 3063 3063 3061 3061 3062 3056 3055 3058 3060 3058 3060 3062 3064 3067
3064 3064 3064 3064 3063 3062 3059 3057 3056 3055 3055 3053 3052 3051 3053 3053 3052 3052 3052 3052 3052 3054 3054 3055 3055 3056 3058 3059 3059 3060 3059 3058 3061 3058 3058 3057 3052 3055 3052 3053 3054 3055 3055 3056 3059
3058 3058 3058 3058 3058 3057 3054 3051 3050 3051 3050 3048 3047 3045 3047 3046 3046 3046 3046 3046 3046 3048 3049 3049 3051 3051 3054 3055 3057 3055 3052 3054 3056 3057 3057 3054 3049 3051 3050 3048 3048 3048 3049 3050 3051
3054 3054 3054 3054 3053 3051 3048 3048 3047 3047 3045 3042 3041 3045 3043 3043 3043 3043 3042 3042 3041 3043 3043 3045 3047 3047 3048 3051 3049 3050 3049 3049 3051 3054 3050 3047 3044 3045 3044 3042 3040 3039 3041 3042 3042
3050 3051 3050 3049 3048 3048 3047 3045 3045 3043 3040 3039 3037 3036 3035 3035 3037 3038 3037 3039 3038 3040 3040 3039 3043 3041 3044 3044 3046 3047 3046 3044 3045 3046 3042 3039 3036 3036 3036 3033 3032 3030 3032 3034 3035
3047 3047 3046 3045 3047 3045 3044 3040 3040 3038 3037 3032 3032 3030 3028 3027 3030 3030 3033 3036 3033 3036 3038 3037 3034 3039 3040 3040 3041 3042 3041 3040 3039 3039 3036 3032 3027 3027 3026 3022 3020 3022 3023 3026 3028
3043 3043 3044 3042 3042 3040 3038 3037 3034 3031 3032 3030 3030 3030 3027 3028 3027 3027 3027 3029 3029 3032 3033 3033 3034 3032 3035 3036 3036 3036 3036 3037 3038 3036 3031 3027 3018 3018 3017 3013 3011 3011 3013 3018 3021
3040 3040 3040 3039 3039 3037 3034 3033 3031 3029 3027 3030 3029 3028 3026 3026 3027 3026 3025 3027 3026 3026 3030 3030 3029 3028 3029 3031 3032 3032 3032 3032 3033 3034 3029 3027 3017 3014 3011 3008 3008 3007 3008 3011 3015
3037 3037 3038 3037 3036 3035 3033 3030 3028 3028 3026 3029 3027 3025 3026 3029 3028 3025 3023 3021 3022 3024 3025 3026 3023 3023 3024 3025 3028 3029 3029 3029 3030 3029 3026 3022 3022 3008 3006 3007 3007 3005 3005 3006 3011
3035 3035 3034 3035 3033 3032 3029 3028 3026 3028 3025 3026 3024 3023 3026 3028 3025 3023 3022 3022 3020 3021 3020 3021 3020 3020 3022 3021 3023 3026 3026 3026 3027 3027 3021 3013 3015 3004 3004 3004 3001 2999 2999 3001 3003
3031 3031 3031 3030 3031 3028 3026 3026 3027 3023 3026 3025 3022 3022 3022 3024 3024 3023 3022 3021 3022 3021 3016 3016 3015 3017 3017 3021 3021 3023 3024 3019 3019 3021 3008 3009 3010 3002 3000 2999 2997 2995 2995 2996 2999
3028 3027 3027 3027 3026 3025 3023 3026 3025 3020 3021 3019 3020 3021 3023 3020 3021 3020 3019 3019 3018 3017 3015 3013 3011 3011 3010 3014 3018 3018 3019 3015 3009 3003 3002 3007 3002 2999 3000 2998 2996 2995 2994 2995 2995
3024 3024 3023 3023 3023 3021 3022 3022 3021 3017 3018 3018 3018 3019 3020 3020 3019 3018 3017 3016 3015 3015 3015 3011 3008 3006 3006 3008 3014 3014 3014 3015 3015 3013 3011 3000 2997 2997 2995 2995 2994 2992 2992 2992 2992
3020 3019 3020 3020 3018 3018 3018 3017 3016 3016 3015 3015 3018 3018 3017 3018 3018 3017 3014 3010 3009 3007 3006 3009 3007 3006 3005 3006 3009 3008 3011 3012 3012 3007 2999 2989 2991 2991 2993 2992 2991 2988 2988 2989 2989
3017 3016 3016 3016 3013 3014 3013 3012 3012 3012 3013 3015 3016 3016 3016 3015 3014 3014 3012 3010 3005 3004 3002 3005 3006 3005 3004 3002 3004 3004 3005 3006 3006 3005 2996 2989 2987 2991 2991 2991 2990 2989 2986 2984 2985
3013 3014 3012 3010 3010 3008 3008 3008 3010 3010 3011 3012 3013 3014 3014 3013 3011 3011 3009 3008 3002 3001 3000 3001 3000 2998 3000 2999 3000 3000 3000 3001 3000 3000 3001 3000 2993 2991 2992 2991 2988 2987 2985 2980 2980
3010 3009 3007 3006 3006 3005 3005 3006 3008 3010 3010 3011 3012 3012 3011 3012 3010 3006 3006 3004 3000 2998 2997 2996 2995 2994 2996 2997 2995 2996 2996 2997 2998 2999 2998 2999 2991 2991 2991 2990 2986 2984 2983 2979 2977
3006 3004 3003 3001 3001 3002 3003 3005 3007 3007 3008 3008 3009 3008 3008 3007 3007 3003 3003 3001 2995 2994 2993 2991 2989 2988 2986 2986 2988 2992 2994 2995 2996 2996 2996 2995 2992 2993 2992 2989 2984 2981 2980 2977 2975
3001 3000 3000 2999 2999 3000 3002 3004 3005 3007 3007 3007 3007 3006 3005 3005 3002 3000 2998 2994 2992 2988 2986 2984 2983 2985 2987 2987 2988 2990 2993 2993 2993 2994 2994 2993 2991 2991 2988 2983 2980 2979 2977 2974 2973
2998 2998 2996 2997 2998 2999 3001 3003 3004 3005 3004 3005 3004 3004 3002 3002 3001 2995 2994 2993 2990 2987 2984 2977 2979 2982 2984 2988 2987 2989 2990 2990 2990 2990 2990 2990 2989 2988 2985 2981 2977 2976 2974 2973 2970
2993 2994 2995 2997 2998 2999 3001 3001 3002 3001 3001 3000 3000 2998 2997 2997 2994 2991 2988 2986 2986 2986 2984 2979 2979 2982 2985 2985 2984 2986 2986 2987 2988 2989 2990 2988 2987 2983 2980 2977 2974 2973 2972 2971 2969
Wind_Speed
32 31 30 30 31 31 32 31 29 29 28 28 28 27 28 28 29 30 29 28 25 26 26 24 22 21 22 28 29 27 26 32 28 24 21 19 25 17 20 20 19 20 17 19 21
32 33 32 31 30 31 30 29 29 29 28 27 26 26 27 28 28 29 29 28 27 25 26 25 23 22 23 26 30 32 29 31 26 24 22 21 20 19 19 18 21 22 23 21 22
30 31 31 29 29 28 27 27 28 28 28 29 26 25 26 27 27 30 28 26 25 24 24 26 27 25 23 24 26 28 36 24 26 33 27 25 25 25 23 28 24 24 23 24 24
30 31 31 29 26 25 25 25 26 26 27 29 27 25 24 24 17 17 18 16 13 13 16 20 24 25 25 24 23 28 28 32 27 23 28 27 27 29 29 29 27 25 29 36 30
32 29 28 25 24 23 23 24 26 25 25 26 26 23 22 21 23 26 25 26 25 23 20 13 14 18 20 17 22 28 27 26 27 32 35 31 33 35 32 29 28 28 32 38 35
27 26 24 23 23 23 24 26 26 24 25 26 24 22 22 22 23 21 19 17 19 22 23 19 17 17 16 18 21 16 20 23 24 29 30 32 33 28 33 31 33 30 32 35 38
24 23 23 24 25 26 27 29 27 27 29 30 29 28 25 22 25 25 23 20 20 20 20 21 24 22 14 15 20 26 24 24 26 28 28 26 30 33 30 28 30 32 31 34 35
23 24 25 25 25 24 23 23 22 20 21 21 23 26 26 23 25 26 23 23 19 20 21 22 23 26 20 17 21 19 17 19 13 13 16 16 24 15 8 14 19 22 26 28 32
21 21 18 20 19 19 21 21 21 21 20 20 21 21 21 17 14 16 16 21 20 19 22 22 22 23 15 16 16 15 18 16 16 15 17 19 20 12 13 18 23 22 21 24 27
17 18 19 18 17 16 18 19 19 18 18 18 18 8 9 9 14 14 10 15 16 15 19 23 20 17 17 18 17 12 16 13 16 13 17 26 31 28 27 24 26 28 24 25 26
18 15 11 10 11 11 13 15 18 16 14 15 18 19 18 23 23 21 24 21 14 17 17 21 19 22 23 22 21 20 20 23 23 23 27 30 28 25 25 28 29 28 26 26 26
8 6 6 8 10 11 12 13 15 17 15 13 9 9 10 14 16 20 25 25 21 17 16 15 23 20 18 18 20 21 22 23 23 18 17 24 32 31 32 32 31 30 29 28 24
3 3 6 8 11 12 13 15 17 19 18 4 2 2 9 10 8 9 14 22 20 21 22 21 9 11 15 15 17 21 20 19 19 20 23 23 31 11 9 15 18 26 31 29 27
2 3 7 10 11 13 15 16 17 19 7 4 4 5 11 11 5 8 10 12 20 20 20 20 21 22 18 18 17 16 13 13 13 13 11 8 10 17 13 10 11 17 19 27 26
2 5 7 9 11 13 16 17 17 16 5 4 4 4 8 11 11 11 14 9 17 17 19 11 10 9 17 21 13 12 10 8 11 14 18 19 12 8 8 5 3 5 12 19 23
3 6 8 9 12 14 15 16 14 3 1 1 5 7 11 11 9 9 11 11 5 15 17 19 16 11 11 11 18 10 8 9 11 12 9 18 13 4 1 10 10 8 7 10 18
4 6 9 10 13 14 15 13 3 4 3 5 7 9 12 10 9 10 8 9 5 6 13 15 20 17 16 9 9 11 6 3 7 6 7 4 9 13 10 9 11 10 6 11 16
6 8 10 11 14 15 13 10 5 5 7 13 17 19 11 13 10 9 7 11 12 10 11 8 7 17 15 23 14 16 15 7 6 5 2 4 8 4 2 7 10 13 10 14 13
7 10 11 14 15 15 11 1 2 5 9 11 15 11 10 6 9 9 7 6 6 9 10 6 4 6 6 9 17 11 13 9 9 14 9 13 8 5 3 8 15 19 19 13 16
8 11 13 15 15 13 8 4 6 9 11 12 6 6 9 11 12 8 8 10 7 6 17 7 10 7 9 9 15 10 9 5 8 4 5 6 10 4 4 11 16 16 17 19 17
9 13 14 15 15 10 4 3 7 9 10 4 5 8 10 13 9 12 9 11 16 11 12 13 13 7 12 15 13 11 11 9 6 5 4 3 2 2 6 16 15 21 19 11 17
10 12 14 14 9 8 2 3 4 5 7 7 8 9 9 10 12 10 12 9 18 17 7 10 11 19 16 9 10 9 9 12 7 5 4 6 5 1 7 22 24 23 23 14 9
10 13 11 10 5 3 2 2 3 5 5 4 6 7 9 11 10 8 10 10 19 22 9 5 13 17 10 10 16 13 13 12 8 5 8 4 1 6 15 11 22 22 19 15 11
10 8 9 7 3 2 1 2 1 5 5 4 6 9 9 9 10 11 16 14 19 14 23 18 15 18 12 3 9 12 11 9 8 4 6 11 18 15 16 17 21 20 21 17 12
8 5 5 3 3 2 3 1 3 5 6 5 4 5 6 7 15 12 12 15 14 13 21 10 11 10 5 4 6 8 8 8 10 9 9 12 20 21 18 16 18 19 19 19 12
6 3 1 1 3 4 3 2 5 7 8 7 10 13 12 15 16 24 21 15 16 13 15 6 8 9 5 5 3 4 6 9 10 10 12 14 17 12 17 14 17 18 16 17 14
3 3 6 7 7 5 4 3 5 10 8 9 10 15 17 18 19 21 24 23 22 20 17 16 5 8 1 3 6 7 8 2 2 2 7 13 18 18 14 12 15 18 15 16 14
Wind_Direction
292 291 292 293 296 296 296 295 292 290 287 284 284 284 284 283 281 281 282 276 269 267 267 266 263 257 245 239 240 235 239 248 248 252 249 255 253 257 250 250 249 245 234 241 234
291 290 289 290 292 292 290 290 290 290 289 286 283 283 284 284 282 278 277 277 272 266 261 261 258 256 245 240 238 232 240 247 251 245 250 255 253 252 262 253 251 250 235 236 232
288 288 288 288 289 288 288 288 288 286 287 286 286 285 284 286 287 283 279 275 269 264 256 252 250 244 238 238 234 243 242 251 257 257 260 263 261 265 256 254 247 250 238 238 233
283 286 287 287 286 286 288 289 288 290 290 288 288 288 286 284 290 280 274 268 261 262 254 247 240 239 238 237 240 246 253 253 256 261 263 262 269 261 256 260 257 253 237 234 234
285 285 285 287 289 290 291 291 289 290 289 289 290 288 281 278 279 279 276 274 271 267 265 255 242 236 237 247 243 254 255 260 265 264 267 268 264 267 262 261 264 249 246 237 231
280 280 281 284 285 286 286 285 286 289 289 290 292 291 285 284 284 279 278 266 261 259 254 244 236 238 244 243 247 255 266 259 261 265 269 269 268 267 265 266 265 255 246 243 235
276 277 280 283 285 281 282 282 284 285 284 285 288 288 288 292 284 276 274 267 258 258 259 252 241 241 245 256 256 261 267 273 269 268 272 277 269 264 268 262 257 253 248 243 238
276 281 283 285 285 284 286 289 287 290 294 295 291 288 290 289 285 279 275 264 256 254 248 247 249 247 241 242 253 268 265 272 276 258 262 261 270 261 257 248 256 257 251 247 240
279 280 282 287 287 287 285 292 293 292 293 295 295 295 298 281 279 278 275 262 257 249 246 243 243 246 238 238 257 251 257 258 271 270 264 255 267 263 241 262 257 257 255 245 237
270 278 286 287 292 299 298 294 294 299 307 303 300 305 287 256 282 288 288 268 258 247 243 241 234 225 225 221 233 242 247 262 268 256 273 273 268 271 272 265 262 257 250 245 237
278 282 289 305 312 309 308 315 316 315 331 316 297 290 278 273 273 265 259 261 264 247 234 241 217 226 230 236 243 257 266 271 271 277 281 281 279 275 270 262 255 254 250 244 239
264 290 317 320 317 315 318 322 321 324 344 322 309 294 292 286 280 264 256 255 243 233 213 215 226 237 241 242 246 250 259 269 281 284 281 285 283 278 270 263 259 250 249 242 239
255 300 314 317 321 324 328 326 327 330 340 334 339 316 341 330 333 296 268 246 234 227 226 228 241 214 226 240 240 243 248 262 273 284 286 291 297 268 276 287 266 256 249 243 241
243 312 321 323 323 327 327 330 333 338 348 353 355 352 346 353 316 324 315 252 223 231 231 246 243 249 250 246 233 242 250 254 268 283 278 303 289 287 291 297 281 260 251 244 241
302 328 328 326 327 330 332 333 340 344 302 323 320 304 349 359 331 312 329 306 228 230 213 235 251 233 243 245 223 228 239 251 263 272 290 276 256 281 306 330 333 300 279 251 239
317 333 330 330 329 333 334 336 342 8 243 242 271 294 313 325 337 308 325 335 310 226 238 238 257 261 249 253 223 234 241 265 268 265 256 257 228 264 8 320 328 323 332 230 223
318 332 332 331 328 331 332 337 331 234 281 307 285 312 331 326 323 313 275 280 260 235 247 256 245 240 222 217 201 212 222 238 208 207 251 194 228 258 320 337 343 331 296 215 213
323 334 331 328 325 329 331 335 239 243 247 268 294 299 310 315 296 292 294 259 250 252 273 251 223 215 233 228 230 229 217 233 264 239 244 238 242 155 17 358 341 308 295 230 218
323 328 327 324 324 327 327 249 247 261 277 283 295 303 281 298 321 313 287 268 249 240 251 268 245 221 210 209 196 200 213 232 252 253 263 245 231 247 341 335 298 291 288 259 231
321 324 320 323 323 321 319 235 257 265 274 294 304 292 284 295 313 297 274 252 226 200 220 247 261 237 209 183 201 207 198 192 204 237 237 205 245 190 340 331 317 317 274 254 231
320 316 319 319 320 317 300 249 261 266 273 286 268 284 289 306 287 287 259 273 264 252 238 219 233 218 214 210 212 201 213 206 209 244 295 299 176 192 277 322 329 339 318 264 233
318 304 315 318 321 305 312 255 246 246 278 287 286 282 283 298 293 277 258 269 282 295 295 193 240 232 229 230 204 222 218 205 229 171 248 301 298 230 332 338 346 329 323 301 240
312 310 316 323 298 333 297 275 258 257 277 272 272 271 280 285 296 267 278 288 298 295 279 260 225 218 221 232 226 226 219 217 225 262 249 279 6 355 336 331 326 327 328 312 267
319 311 319 329 332 341 9 283 275 259 286 282 286 284 279 272 272 275 285 294 291 290 294 290 226 224 250 273 184 200 205 214 221 227 271 271 288 303 312 309 309 310 309 324 281
319 302 302 320 351 23 22 332 272 276 268 283 277 225 312 301 296 280 288 269 301 269 280 250 192 196 202 152 149 172 195 217 231 249 265 288 292 306 309 307 280 305 307 321 288
314 294 231 119 49 44 357 297 275 276 273 254 270 289 293 296 290 295 299 298 302 300 304 326 148 165 122 182 173 253 252 256 258 256 271 285 294 300 308 302 292 303 293 312 303
321 166 148 114 92 71 22 303 276 287 285 272 273 283 286 294 288 283 280 274 279 295 309 313 93 100 133 222 322 273 188 190 204 289 300 304 303 305 294 293 302 295 292 296 320